Location: Edgewood Acres Mobile Home Park
(42.3561°N, 73.6122°W)
Time: 03:55:44
(UTC+00:00)

CZ-4B R/B - Pass Details

Date: 08 September 2024
Orbit: 807 x 881 km, 99.0° (Epoch: 08 October)

Event Time Altitude Azimuth Distance (km) Brightness Sun altitude
Exits shadow 23:38:51 - 128° (SE) 3,182 5.6 -5.1°
Reaches altitude 10° 23:40:54 10° 119° (ESE) 2,479 5.0 -5.5°
Maximum altitude 23:45:22 26° 64° (ENE) 1,597 4.3 -6.3°
Drops below altitude 10° 23:49:47 10° 9° (N) 2,451 5.7 -7.1°
Sets 23:52:27 0° 358° (N) 3,377 6.6 -7.5°
